Latest Coastal Weather Observations for Melbourne

IDV60701

Issued at 10:35 pm EST Thursday 17 April 2014 (issued every 10 minutes, with the page automatically refreshed every 10 minutes)

About coastal observations | Map of coastal stations | Coastal observations for VIC | Marine services | Other Formats
Station Details ID: 086071 Name: MELBOURNE REGIONAL OFFICE Lat: -37.81 Lon: 144.97 Height: 31.15 m
Data from the previous 72 hours. | See also: Recent months at Melbourne
Date/Time
EST
Temp

°C
Wind Pressure Rain
since 9am
mm
Weather Cloud Vis
km
Sea
Height
m
Swell
Dir
 
Speed
knots
Gust
knots
hPa Trend Height
m
Period
s
Dir
17/10:30pm 17.9 - - - 1017.7 - 0.0 - - - - - - -
17/10:00pm 17.8 - - - 1017.9 - 0.0 - - - - - - -
17/09:30pm 18.3 - - - 1017.8 - 0.0 - - - - - - -
17/09:00pm 18.1 - - - 1017.8 - 0.0 - - - - - - -
17/08:30pm 18.2 - - - 1017.8 - 0.0 - - - - - - -
17/08:00pm 18.6 - - - 1017.9 - 0.0 - - - - - - -
17/07:30pm 18.9 - - - 1017.9 - 0.0 - - - - - - -
17/07:00pm 19.9 - - - 1017.9 - 0.0 - - - - - - -
17/06:30pm 20.5 - - - 1017.7 - 0.0 - - - - - - -
17/06:00pm 21.8 - - - 1017.5 - 0.0 - - - - - - -
17/05:30pm 22.3 - - - 1017.4 - 0.0 - - - - - - -
17/05:00pm 22.7 - - - 1017.3 - 0.0 - - - - - - -
17/04:30pm 22.9 - - - 1017.4 - 0.0 - - - - - - -
17/04:00pm 23.4 - - - 1017.6 - 0.0 - - - - - - -
17/03:30pm 24.1 - - - 1017.8 - 0.0 - - - - - - -
17/03:00pm 24.1 - - - 1018.0 F 0.0 Haze Mostly cloudy 30 - - - -
17/02:30pm 24.0 - - - 1018.2 - 0.0 - - - - - - -
17/02:00pm 24.3 - - - 1018.5 - 0.0 - - - - - - -
17/01:30pm 24.1 - - - 1018.8 - 0.0 - - - - - - -
17/01:00pm 22.9 - - - 1019.3 - 0.0 - - - - - - -
17/12:30pm 23.1 - - - 1019.6 - 0.0 - - - - - - -
17/12:00pm 22.6 - - - 1020.0 F 0.0 Haze Mostly clear 25 - - - -
17/11:30am 21.3 - - - 1020.4 - 0.0 - - - - - - -
17/11:00am 20.7 - - - 1020.6 - 0.0 - - - - - - -
17/10:30am 19.1 - - - 1020.6 - 0.0 - - - - - - -
17/10:00am 16.5 - - - 1020.7 - 0.0 - - - - - - -
17/09:30am 15.0 - - - 1020.9 - 0.0 - - - - - - -
17/09:00am 14.1 - - - 1021.1 F 0.0 Haze Clear 20 - - - -
17/08:30am 12.7 - - - 1021.1 - 0.0 - - - - - - -
17/08:00am 12.3 - - - 1020.9 - 0.0 - - - - - - -
17/07:30am 11.4 - - - 1020.8 - 0.0 - - - - - - -
17/07:00am 11.5 - - - 1020.4 - 0.0 - - - - - - -
17/06:30am 11.4 - - - 1020.3 - 0.0 - - - - - - -
17/06:00am 11.5 - - - 1020.2 - 0.0 - - - - - - -
17/05:30am 11.5 - - - 1020.0 - 0.0 - - - - - - -
17/05:00am 11.4 - - - 1019.8 - 0.0 - - - - - - -
17/04:30am 12.2 - - - 1019.7 - 0.0 - - - - - - -
17/04:00am 11.8 - - - 1019.6 - 0.0 - - - - - - -
17/03:30am 12.3 - - - 1019.5 - 0.0 - - - - - - -
17/03:00am 12.6 - - - 1019.5 - 0.0 - - - - - - -
17/02:30am 12.5 - - - 1019.3 - 0.0 - - - - - - -
17/02:00am 12.8 - - - 1019.5 - 0.0 - - - - - - -
17/01:30am 13.9 - - - 1019.5 - 0.0 - - - - - - -
17/01:00am 14.5 - - - 1019.7 - 0.0 - - - - - - -
17/12:30am 13.9 - - - 1019.6 - 0.0 - - - - - - -
17/12:00am 14.2 - - - 1019.4 - 0.0 - - - - - - -
 
Date/Time
EST
Temp

°C
Wind Pressure Rain
since 9am
mm
Weather Cloud Vis
km
Sea
Height
m
Swell
Dir
 
Speed
knots
Gust
knots
hPa Trend Height
m
Period
s
Dir
16/11:30pm 14.5 - - - 1019.5 - 0.0 - - - - - - -
16/11:00pm 15.5 - - - 1019.4 - 0.0 - - - - - - -
16/10:30pm 15.8 - - - 1019.8 - 0.0 - - - - - - -
16/10:00pm 15.8 - - - 1019.8 - 0.0 - - - - - - -
16/09:30pm 16.7 - - - 1020.0 - 0.0 - - - - - - -
16/09:00pm 16.4 - - - 1019.9 - 0.0 - - - - - - -
16/08:30pm 16.7 - - - 1019.7 - 0.0 - - - - - - -
16/08:00pm 17.2 - - - 1019.7 - 0.0 - - - - - - -
16/07:30pm 17.8 - - - 1019.6 - 0.0 - - - - - - -
16/07:00pm 18.0 - - - 1019.5 - 0.0 - - - - - - -
16/06:30pm 17.9 - - - 1019.2 - 0.0 - - - - - - -
16/06:00pm 18.2 - - - 1018.9 - 0.0 - - - - - - -
16/05:30pm 18.9 - - - 1018.8 - 0.0 - - - - - - -
16/05:00pm 19.2 - - - 1018.4 - 0.0 - - - - - - -
16/04:30pm 19.1 - - - 1018.4 - 0.0 - - - - - - -
16/04:00pm 19.2 - - - 1018.1 - 0.0 - - - - - - -
16/03:30pm 20.5 - - - 1017.8 - 0.0 - - - - - - -
16/03:00pm 21.0 - - - 1018.0 F 0.0 Haze Mostly cloudy 25 - - - -
16/02:30pm 20.5 - - - 1018.0 - 0.0 - - - - - - -
16/02:00pm 21.3 - - - 1018.0 - 0.0 - - - - - - -
16/01:30pm 21.6 - - - 1018.2 - 0.0 - - - - - - -
16/01:00pm 21.4 - - - 1018.5 - 0.0 - - - - - - -
16/12:30pm 20.9 - - - 1019.1 - 0.0 - - - - - - -
16/12:00pm 19.1 - - - 1019.5 F 0.0 Haze Mostly cloudy 25 - - - -
16/11:30am 18.7 - - - 1020.0 - 0.0 - - - - - - -
16/11:00am 16.9 - - - 1020.3 - 0.0 - - - - - - -
16/10:30am 16.3 - - - 1020.6 - 0.0 - - - - - - -
16/10:00am 14.2 - - - 1021.0 - 0.0 - - - - - - -
16/09:30am 14.1 - - - 1021.2 - 0.0 - - - - - - -
16/09:00am 13.4 - - - 1021.2 F 0.0 Haze Mostly cloudy 25 - - - -
16/08:30am 12.6 - - - 1021.1 - 0.0 - - - - - - -
16/08:00am 11.6 - - - 1021.0 - 0.0 - - - - - - -
16/07:30am 10.6 - - - 1021.0 - 0.0 - - - - - - -
16/07:00am 10.3 - - - 1020.8 - 0.0 - - - - - - -
16/06:30am 10.3 - - - 1020.7 - 0.0 - - - - - - -
16/06:00am 10.2 - - - 1020.7 - 0.0 - - - - - - -
16/05:30am 10.2 - - - 1020.7 - 0.0 - - - - - - -
16/05:00am 10.5 - - - 1020.6 - 0.0 - - - - - - -
16/04:30am 10.6 - - - 1020.3 - 0.0 - - - - - - -
16/04:00am 10.9 - - - 1020.3 - 0.0 - - - - - - -
16/03:30am 11.2 - - - 1020.1 - 0.0 - - - - - - -
16/03:00am 11.2 - - - 1020.2 - 0.0 - - - - - - -
16/02:30am 11.4 - - - 1020.5 - 0.0 - - - - - - -
16/02:00am 12.0 - - - 1020.9 - 0.0 - - - - - - -
16/01:30am 12.1 - - - 1021.3 - 0.0 - - - - - - -
16/01:00am 12.4 - - - 1021.3 - 0.0 - - - - - - -
16/12:30am 13.2 - - - 1021.3 - 0.0 - - - - - - -
16/12:00am 13.5 - - - 1021.4 - 0.0 - - - - - - -
 
Date/Time
EST
Temp

°C
Wind Pressure Rain
since 9am
mm
Weather Cloud Vis
km
Sea
Height
m
Swell
Dir
 
Speed
knots
Gust
knots
hPa Trend Height
m
Period
s
Dir
15/11:30pm 13.5 - - - 1021.5 - 0.0 - - - - - - -
15/11:00pm 14.0 - - - 1021.8 - 0.0 - - - - - - -
15/10:30pm 14.7 - - - 1021.9 - 0.0 - - - - - - -
15/10:00pm 15.2 - - - 1022.3 - 0.0 - - - - - - -
15/09:30pm 15.6 - - - 1022.3 - 0.0 - - - - - - -
15/09:00pm 16.1 - - - 1022.1 - 0.0 - - - - - - -
15/08:30pm 16.4 - - - 1022.0 - 0.0 - - - - - - -
15/08:00pm 17.0 - - - 1022.0 - 0.0 - - - - - - -
15/07:30pm 17.4 - - - 1022.2 - 0.0 - - - - - - -
15/07:00pm 17.4 - - - 1022.0 - 0.0 - - - - - - -
15/06:30pm 17.5 - - - 1021.8 - 0.0 - - - - - - -
15/06:00pm 18.1 - - - 1021.6 - 0.0 - - - - - - -
15/05:30pm 18.6 - - - 1021.2 - 0.0 - - - - - - -
15/05:00pm 18.9 - - - 1021.1 - 0.0 - - - - - - -
15/04:30pm 19.6 - - - 1021.0 - 0.0 - - - - - - -
15/04:00pm 21.1 - - - 1021.1 - 0.0 - - - - - - -
15/03:30pm 20.3 - - - 1021.3 - 0.0 - - - - - - -
15/03:00pm 20.5 - - - 1021.4 S 0.0 Fine Partly cloudy 30 - - - -
15/02:30pm 21.1 - - - 1021.5 - 0.0 - - - - - - -
15/02:00pm 19.9 - - - 1021.5 - 0.0 - - - - - - -
15/01:30pm 20.1 - - - 1021.5 - 0.0 - - - - - - -
15/01:00pm 20.1 - - - 1022.0 - 0.0 - - - - - - -
15/12:30pm 20.8 - - - 1022.3 - 0.0 - - - - - - -
15/12:00pm 19.6 - - - 1022.7 F 0.0 Fine Partly cloudy 30 - - - -
15/11:30am 19.5 - - - 1023.1 - 0.0 - - - - - - -
15/11:00am 18.8 - - - 1023.5 - 0.0 - - - - - - -
15/10:30am 18.0 - - - 1023.6 - 0.0 - - - - - - -
15/10:00am 16.8 - - - 1023.8 - 0.0 - - - - - - -
15/09:30am 16.3 - - - 1023.9 - 0.0 - - - - - - -
15/09:00am 16.1 - - - 1024.0 R 0.0 Fine Mostly clear 30 - - - -
15/08:30am 14.9 - - - 1024.1 - 0.0 - - - - - - -
15/08:00am 14.0 - - - 1023.9 - 0.0 - - - - - - -
15/07:30am 13.0 - - - 1023.6 - 0.0 - - - - - - -
15/07:00am 13.0 - - - 1023.2 - 0.0 - - - - - - -
15/06:30am 13.4 - - - 1023.0 - 0.0 - - - - - - -
15/06:00am 13.2 - - - 1022.9 - 0.0 - - - - - - -
15/05:30am 13.2 - - - 1022.8 - 0.0 - - - - - - -
15/05:00am 13.1 - - - 1022.7 - 0.0 - - - - - - -
15/04:30am 13.1 - - - 1022.7 - 0.0 - - - - - - -
15/04:00am 13.0 - - - 1022.7 - 0.0 - - - - - - -
15/03:30am 13.6 - - - 1022.7 - 0.0 - - - - - - -
15/03:00am 13.7 - - - 1022.7 - 0.0 - - - - - - -
15/02:30am 14.0 - - - 1023.0 - 0.0 - - - - - - -
15/02:00am 13.8 - - - 1023.1 - 0.0 - - - - - - -
15/01:30am 13.6 - - - 1023.1 - 0.0 - - - - - - -
15/01:00am 14.1 - - - 1023.2 - 0.0 - - - - - - -
15/12:30am 14.2 - - - 1023.2 - 0.0 - - - - - - -
15/12:00am 14.2 - - - 1023.3 - 0.0 - - - - - - -
 
Date/Time
EST
Temp

°C
Wind Pressure Rain
since 9am
mm
Weather Cloud Vis
km
Sea
Height
m
Swell
Dir
 
Speed
knots
Gust
knots
hPa Trend Height
m
Period
s
Dir
14/11:30pm 14.4 - - - 1023.3 - 0.0 - - - - - - -
14/11:00pm 14.9 - - - 1023.5 - 0.0 - - - - - - -

Other Formats:

Comma delimited format used in spreadsheet applications
http://www.bom.gov.au/fwo/IDV60701/IDV60701.94868.axf

JavaScript Object Notation format (JSON) in row-major order
http://www.bom.gov.au/fwo/IDV60701/IDV60701.94868.json